User: anonymous   Login
Location: Oshawa
(43.9000°N, 78.8670°W)
Time: 06:13:14
(UTC-04:00)
Language:

Cosmos 1500 - Orbit

View from above orbital plane
View from above orbital plane
View from above satellite
View from above satellite

Ground track
Ground track

The orbit data is extracted from the following two-line orbital elements,

1 14372U 83099A   14297.03031390  .00008728  00000-0  50217-3 0  6707
2 14372 082.5190 216.7330 0016977 191.9605 300.0805 15.12203539691291
Epoch (UTC): 24 October 2014 00:43:39
Eccentricity: 0.0016977
inclination: 82.5190°
perigee height: 518 km
apogee height: 541 km
right ascension of ascending node: 216.7330°
argument of perigee: 191.9605°
revolutions per day: 15.12203539
mean anomaly at epoch: 300.0805°
orbit number at epoch: 69129

The dashed part of the orbit path shows where the satellite is in the earth's shadow,  

DLR